Peachtree City, GA

1:26 PM EST on December 14, 2017 (GMT -0500)
Peachtree City-Falcon

Weather History for KFFC - July, 2013

Change the Weather History Date:

Saturday, July 13, 2013

  Actual Average Record
Temperature  
Mean Temperature 75 °F 79 °F  
Max Temperature 80 °F 90 °F 97 °F (2011)
Min Temperature 69 °F 69 °F 62 °F (1999)
Degree Days  
Heating Degree Days 0 0  
Month to date heating degree days 0 0  
Since 1 June heating degree days 0 1  
Since 1 July heating degree days 0 0  
Cooling Degree Days 10 14  
Month to date cooling degree days 147 180  
Year to date cooling degree days 650 697  
Since 1 June cooling degree days 504 507  
Growing Degree Days 24 (Base 50)    
Moisture  
Dew Point 70 °F    
Average Humidity 87    
Maximum Humidity 100    
Minimum Humidity 74    
Precipitation  
Precipitation T in 0.19 in 1.72 in (2008)
Month to date precipitation 4.81 2.51  
Year to date precipitation 19.37 27.66  
Snow  
Snow 0.00 in - - ()
Month to date snowfall 0.0  
Since 1 June snowfall 0.0  
Since 1 July snowfall 0.0  
Snow Depth 0.00 in    
Sea Level Pressure  
Sea Level Pressure 30.00 in    
Wind  
Wind Speed 5 mph (East)    
Max Wind Speed 14 mph    
Max Gust Speed 20 mph    
Visibility 8 miles    
Events Rain , Thunderstorm    
T = Trace of Precipitation, MM = Missing Value Source: NWS Daily Summary

Daily Weather History Graph

Daily Weather History Graph

Search for Another Location

Airport or City:

Trip Planner

Search our weather history database for the weather conditions in past years. The results will help you decide how hot, cold, wet, or windy it might be!

Date:

Astronomy

Jul. 13, 2013 Rise Set
Actual Time 6:38 AM EDT 8:49 PM EDT
Civil Twilight 6:10 AM EDT 9:17 PM EDT
Nautical Twilight 5:35 AM EDT 9:52 PM EDT
Astronomical Twilight 4:58 AM EDT 10:29 PM EDT
Moon 11:35 AM EDT (7/13) 11:49 PM EDT (7/13)
Length of Visible Light 15h 07m
Length of Day
14h 10m
Waxing Crescent, 25% of the Moon is Illuminated
Jul 13
Waxing Crescent
Jul 15
First Quarter
Jul 22
Full
Jul 29
Last Quarter
Aug 6
New

Hourly Weather History & Observations

Time (EDT) Temp. Heat Index Dew Point Humidity Pressure Visibility Wind Dir Wind Speed Gust Speed Precip Events Conditions
12:28 AM 73.4 °F - 71.6 °F 94% 29.97 in 10.0 mi Calm Calm - N/A   Mostly Cloudy
12:53 AM 73.0 °F - 70.0 °F 90% 29.96 in 10.0 mi Variable 3.5 mph - N/A   Overcast
1:23 AM 73.4 °F - 69.8 °F 88% 29.99 in 10.0 mi Variable 3.5 mph - N/A   Mostly Cloudy
1:44 AM 71.6 °F - 69.8 °F 94% 29.98 in 10.0 mi Calm Calm - N/A   Mostly Cloudy
1:53 AM 72.0 °F - 70.0 °F 93% 29.97 in 10.0 mi Calm Calm - N/A   Overcast
2:02 AM 71.6 °F - 69.8 °F 94% 29.99 in 10.0 mi East 3.5 mph - N/A   Overcast
2:15 AM 71.6 °F - 69.8 °F 94% 29.98 in 10.0 mi SE 4.6 mph - N/A Thunderstorm Mostly Cloudy
2:23 AM 71.6 °F - 69.8 °F 94% 29.98 in 10.0 mi ESE 9.2 mph - N/A Thunderstorm Mostly Cloudy
2:35 AM 71.6 °F - 69.8 °F 94% 29.98 in 10.0 mi South 4.6 mph - N/A   Scattered Clouds
2:53 AM 71.1 °F - 69.1 °F 93% 29.95 in 10.0 mi Calm Calm - N/A   Scattered Clouds
3:53 AM 70.0 °F - 68.0 °F 93% 29.92 in 10.0 mi Variable 3.5 mph - N/A   Clear
4:31 AM 69.8 °F - 68.0 °F 94% 29.95 in 10.0 mi ENE 6.9 mph - N/A   Scattered Clouds
4:40 AM 69.8 °F - 68.0 °F 94% 29.96 in 10.0 mi NE 4.6 mph - N/A   Mostly Cloudy
4:53 AM 70.0 °F - 68.0 °F 93% 29.94 in 10.0 mi NE 4.6 mph - N/A   Overcast
5:44 AM 69.8 °F - 68.0 °F 94% 29.97 in 10.0 mi East 4.6 mph - N/A   Mostly Cloudy
5:53 AM 69.1 °F - 66.9 °F 93% 29.96 in 10.0 mi East 3.5 mph - N/A   Mostly Cloudy
6:00 AM 69.8 °F - 66.2 °F 88% 29.97 in 10.0 mi Calm Calm - N/A   Mostly Cloudy
6:15 AM 69.8 °F - 66.2 °F 88% 29.98 in 10.0 mi Calm Calm - N/A   Overcast
6:27 AM 69.8 °F - 68.0 °F 94% 29.98 in 10.0 mi Calm Calm - N/A   Overcast
6:42 AM 69.8 °F - 68.0 °F 94% 29.98 in 10.0 mi Calm Calm - N/A   Overcast
6:53 AM 70.0 °F - 68.0 °F 93% 29.97 in 10.0 mi East 3.5 mph - N/A   Overcast
7:24 AM 69.8 °F - 68.0 °F 94% 30.00 in 1.8 mi Calm Calm - N/A   Overcast
7:31 AM 69.8 °F - 68.0 °F 94% 30.00 in 1.2 mi Calm Calm - N/A   Overcast
7:50 AM 69.8 °F - 69.8 °F 100% 30.00 in 2.5 mi Calm Calm - N/A   Overcast
7:53 AM 70.0 °F - 69.1 °F 97% 29.99 in 2.5 mi NE 5.8 mph - N/A   Overcast
8:07 AM 69.8 °F - 69.8 °F 100% 30.01 in 3.0 mi East 4.6 mph - N/A   Overcast
8:16 AM 69.8 °F - 69.8 °F 100% 30.02 in 2.0 mi Variable 3.5 mph - N/A   Overcast
8:53 AM 71.1 °F - 70.0 °F 96% 30.01 in 1.8 mi ENE 4.6 mph - N/A   Overcast
9:04 AM 73.4 °F - 69.8 °F 88% 30.03 in 3.0 mi Calm Calm - N/A   Overcast
9:39 AM 71.6 °F - 69.8 °F 94% 30.03 in 7.0 mi East 5.8 mph - N/A   Overcast
9:53 AM 73.0 °F - 70.0 °F 90% 30.02 in 7.0 mi East 4.6 mph - N/A   Overcast
10:53 AM 73.9 °F - 71.1 °F 91% 30.03 in 6.0 mi Variable 5.8 mph - N/A   Overcast
11:31 AM 75.2 °F - 71.6 °F 89% 30.05 in 7.0 mi East 5.8 mph - N/A   Overcast
11:53 AM 77.0 °F - 71.1 °F 82% 30.03 in 7.0 mi East 5.8 mph - N/A   Overcast
12:34 PM 77.0 °F - 71.6 °F 83% 30.05 in 6.0 mi East 8.1 mph - N/A   Haze
12:53 PM 77.0 °F - 71.1 °F 82% 30.04 in 7.0 mi ENE 8.1 mph - N/A   Overcast
1:42 PM 78.8 °F - 71.6 °F 78% 30.04 in 10.0 mi ENE 8.1 mph - N/A   Mostly Cloudy
1:53 PM 79.0 °F - 71.1 °F 77% 30.02 in 10.0 mi Variable 6.9 mph - N/A   Mostly Cloudy
2:53 PM 79.0 °F - 71.1 °F 77% 30.01 in 10.0 mi NE 9.2 mph - N/A   Mostly Cloudy
3:06 PM 80.6 °F 84.6 °F 71.6 °F 74% 30.02 in 10.0 mi East 8.1 mph - N/A   Mostly Cloudy
3:17 PM 80.6 °F 84.6 °F 71.6 °F 74% 30.03 in 10.0 mi Variable 4.6 mph - N/A   Mostly Cloudy
3:53 PM 78.1 °F - 70.0 °F 76% 30.01 in 10.0 mi NE 6.9 mph - N/A   Overcast
4:34 PM 78.8 °F - 69.8 °F 74% 30.02 in 10.0 mi East 6.9 mph 16.1 mph N/A   Mostly Cloudy
4:53 PM 78.1 °F - 70.0 °F 76% 30.00 in 10.0 mi ESE 13.8 mph 19.6 mph N/A   Mostly Cloudy
5:00 PM 78.8 °F - 69.8 °F 74% 30.02 in 10.0 mi East 8.1 mph 19.6 mph N/A   Mostly Cloudy
5:53 PM 75.9 °F - 70.0 °F 82% 30.02 in 10.0 mi ESE 8.1 mph - N/A   Mostly Cloudy
6:53 PM 75.0 °F - 70.0 °F 84% 30.02 in 10.0 mi ESE 4.6 mph - N/A   Scattered Clouds
7:18 PM 75.2 °F - 69.8 °F 83% 30.04 in 10.0 mi East 4.6 mph - N/A   Overcast
7:53 PM 75.0 °F - 71.1 °F 87% 30.03 in 10.0 mi East 4.6 mph - N/A   Mostly Cloudy
8:53 PM 75.0 °F - 71.1 °F 87% 30.03 in 10.0 mi Calm Calm - N/A   Scattered Clouds
9:04 PM 75.2 °F - 71.6 °F 89% 30.04 in 10.0 mi Calm Calm - N/A   Mostly Cloudy
9:20 PM 75.2 °F - 71.6 °F 89% 30.04 in 10.0 mi NE 4.6 mph - N/A   Overcast
9:45 PM 73.4 °F - 71.6 °F 94% 30.04 in 10.0 mi Calm Calm - N/A   Scattered Clouds
9:53 PM 73.9 °F - 71.1 °F 91% 30.03 in 10.0 mi Calm Calm - N/A   Partly Cloudy
10:35 PM 73.4 °F - 69.8 °F 88% 30.06 in 10.0 mi Variable 3.5 mph - N/A   Mostly Cloudy
10:53 PM 73.0 °F - 70.0 °F 90% 30.05 in 6.0 mi East 10.4 mph 17.3 mph 0.00 in Rain Light Rain
11:53 PM 72.0 °F - 69.1 °F 91% 30.06 in 10.0 mi East 4.6 mph - 0.00 in   Partly Cloudy